Istanbul, Turkey

7:07 AM +03 on May 30, 2017 (GMT +0300)
Ataturk

Weather History for LTBA - December, 2012

Change the Weather History Date:

Tuesday, December 25, 2012

  Actual Average Record
Temperature  
Mean Temperature 44 °F -  
Max Temperature 51 °F 46 °F 64 °F (2010)
Min Temperature 36 °F 38 °F 30 °F (2008)
Degree Days  
Heating Degree Days 22    
Moisture  
Dew Point 40 °F    
Average Humidity 77    
Maximum Humidity 93    
Minimum Humidity 51    
Precipitation  
Precipitation 0.00 in - - ()
Sea Level Pressure  
Sea Level Pressure 30.26 in    
Wind  
Wind Speed 5 mph ()    
Max Wind Speed 12 mph    
Max Gust Speed -    
Visibility 4.9 miles    
Events      
Averages and records for this station are not official NWS values.
T = Trace of Precipitation, MM = Missing Value Source: Averaged Metar Reports

Daily Weather History Graph

Daily Weather History Graph

Search for Another Location

Airport or City:

Trip Planner

Search our weather history database for the weather conditions in past years. The results will help you decide how hot, cold, wet, or windy it might be!

Date:

Astronomy

Dec. 25, 2012 Rise Set
Actual Time 7:27 AM EET 4:42 PM EET
Civil Twilight 6:56 AM EET 5:13 PM EET
Nautical Twilight 6:22 AM EET 5:47 PM EET
Astronomical Twilight 5:48 AM EET 6:21 PM EET
Moon 2:36 PM EET (12/25) 4:42 AM EET (12/25)
Length of Visible Light 10h 16m
Length of Day
9h 14m
Waxing Gibbous, 92% of the Moon is Illuminated
Dec 25
Waxing Gibbous
Dec 28
Full
Jan 5
Last Quarter
Jan 11
New
Jan 19
First Quarter

Hourly Weather History & Observations

Time (EET) Temp. Windchill Dew Point Humidity Pressure Visibility Wind Dir Wind Speed Gust Speed Precip Events Conditions
12:20 AM 37.4 °F - 33.8 °F 87% 30.27 in 4.3 mi Calm Calm - N/A   Unknown
12:50 AM 39.2 °F - 33.8 °F 81% 30.24 in - Calm Calm - N/A   Clear
1:20 AM 42.8 °F - 35.6 °F 76% 30.24 in 4.3 mi Variable 2.3 mph - N/A   Unknown
1:50 AM 42.8 °F - 35.6 °F 76% 30.24 in 4.3 mi Variable 2.3 mph - N/A   Unknown
2:00 AM 43 °F - 37 °F 72% 30.27 in 4 mi West 2.3 mph - -   Mist
2:20 AM 42.8 °F 41.1 °F 35.6 °F 76% 30.27 in 4.3 mi West 3.5 mph - N/A   Unknown
2:50 AM 42.8 °F 39.3 °F 37.4 °F 81% 30.27 in 4.3 mi West 5.8 mph - N/A   Unknown
3:20 AM 42.8 °F 41.1 °F 35.6 °F 76% 30.27 in 4.3 mi WNW 3.5 mph - N/A   Unknown
3:50 AM 41.0 °F 38.0 °F 35.6 °F 81% 30.27 in 5.0 mi West 4.6 mph - N/A   Unknown
4:20 AM 41.0 °F 39.0 °F 35.6 °F 81% 30.24 in 5.0 mi West 3.5 mph - N/A   Unknown
4:50 AM 39.2 °F - 33.8 °F 81% 30.24 in 5.0 mi WNW 2.3 mph - N/A   Unknown
5:20 AM 41.0 °F 39.0 °F 39.2 °F 93% 30.24 in 5.0 mi West 3.5 mph - N/A   Unknown
5:50 AM 41.0 °F - 39.2 °F 93% 30.27 in 5.0 mi Variable 1.2 mph - N/A   Unknown
6:20 AM 42.8 °F - 41.0 °F 93% 30.27 in 5.0 mi West 2.3 mph - N/A   Unknown
6:50 AM 44.6 °F 41.4 °F 41.0 °F 87% 30.27 in - WSW 5.8 mph - N/A   Clear
7:20 AM 46.4 °F 41.1 °F 41.0 °F 81% 30.27 in 5.0 mi SSW 11.5 mph - N/A   Unknown
7:50 AM 46.4 °F 41.9 °F 39.2 °F 76% 30.27 in 5.0 mi SSW 9.2 mph - N/A   Unknown
8:00 AM 46 °F - 39 °F 69% 30.29 in 5 mi SSW 9.2 mph - -   Mist
8:20 AM 46.4 °F 41.5 °F 39.2 °F 76% 30.27 in - SSW 10.4 mph - N/A   Clear
8:50 AM 46.4 °F 41.5 °F 39.2 °F 76% 30.30 in - SSW 10.4 mph - N/A   Clear
9:20 AM 48.2 °F - 39.2 °F 71% 30.30 in - SSW 10.4 mph - N/A   Clear
9:50 AM 48.2 °F - 39.2 °F 71% 30.30 in - SSW 10.4 mph - N/A   Clear
10:20 AM 48.2 °F - 39.2 °F 71% 30.30 in 6.2 mi SSW 10.4 mph - N/A   Unknown
10:50 AM 48.2 °F - 39.2 °F 71% 30.30 in 6.2 mi SSW 10.4 mph - N/A   Unknown
11:20 AM 50.0 °F - 39.2 °F 66% 30.30 in - SSW 11.5 mph - N/A   Clear
11:50 AM 50.0 °F - 39.2 °F 66% 30.30 in - SSW 9.2 mph - N/A   Clear
12:20 PM 50.0 °F - 39.2 °F 66% 30.27 in - SSW 10.4 mph - N/A   Clear
12:50 PM 50.0 °F - 39.2 °F 66% 30.27 in - SSW 10.4 mph - N/A   Clear
1:50 PM 50.0 °F - 39.2 °F 66% 30.27 in - SW 10.4 mph - N/A   Clear
2:00 PM 51 °F - 38 °F 51% 30.28 in 6 mi SW 10.4 mph - -  
2:20 PM 50.0 °F - 39.2 °F 66% 30.24 in 6.2 mi SW 10.4 mph - N/A   Unknown
2:50 PM 50.0 °F - 39.2 °F 66% 30.24 in - SW 9.2 mph - N/A   Clear
3:20 PM 50.0 °F - 39.2 °F 66% 30.24 in - SW 8.1 mph - N/A   Clear
3:50 PM 50.0 °F - 41.0 °F 71% 30.24 in - WSW 6.9 mph - N/A   Clear
4:20 PM 50.0 °F - 41.0 °F 71% 30.24 in - WSW 9.2 mph - N/A   Clear
4:50 PM 50.0 °F - 42.8 °F 76% 30.24 in - SW 9.2 mph - N/A   Clear
5:20 PM 48.2 °F - 42.8 °F 82% 30.24 in 4.3 mi SSW 5.8 mph - N/A   Unknown
5:50 PM 48.2 °F - 41.0 °F 76% 30.24 in 4.3 mi SW 4.6 mph - N/A   Unknown
6:20 PM 46.4 °F 45.2 °F 41.0 °F 81% 30.24 in 4.3 mi SSW 3.5 mph - N/A   Unknown
6:50 PM 46.4 °F - 41.0 °F 81% 30.24 in 4.3 mi SSW 2.3 mph - N/A   Unknown
7:20 PM 48.2 °F - 42.8 °F 82% 30.24 in - SW 3.5 mph - N/A   Clear
7:50 PM 48.2 °F - 44.6 °F 87% 30.24 in - SW 4.6 mph - N/A   Clear
8:00 PM 49 °F - 44 °F 77% 30.27 in 6 mi SW 4.6 mph - -  
8:20 PM 48.2 °F - 42.8 °F 82% 30.24 in - SW 5.8 mph - N/A   Clear
8:50 PM 50.0 °F - 42.8 °F 76% 30.24 in - SW 8.1 mph - N/A   Clear
9:20 PM 48.2 °F - 41.0 °F 76% 30.24 in - SSW 4.6 mph - N/A   Clear
9:50 PM 48.2 °F - 42.8 °F 82% 30.24 in - SW 3.5 mph - N/A   Clear
10:20 PM 48.2 °F - 42.8 °F 82% 30.24 in - SW 8.1 mph - N/A   Clear
10:50 PM 48.2 °F - 42.8 °F 82% 30.21 in - WSW 5.8 mph - N/A   Clear
11:20 PM 48.2 °F - 42.8 °F 82% 30.21 in - SW 8.1 mph - N/A   Clear
11:50 PM 48.2 °F - 42.8 °F 82% 30.21 in - WSW 6.9 mph - N/A   Clear